User: anonymous   Login
Location: Unspecified
(0.0000°N, 0.0000°E)
Time: 17:25:28
(UTC+00:00)
Language:

TATIANA 2 - Orbit

View from above orbital plane
View from above orbital plane
View from above satellite
View from above satellite

Ground track
Ground track

The orbit data is extracted from the following two-line orbital elements,

1 35868U 09049D   18116.14473034  .00000027  00000-0  30324-4 0  9990
2 35868  98.4002 130.2172 0003076 303.6803  56.4083 14.22811254446730
Epoch (UTC): 26 April 2018 03:28:24
Eccentricity: 0.0003076
inclination: 98.4002°
perigee height: 813 km
apogee height: 818 km
right ascension of ascending node: 130.2172°
argument of perigee: 303.6803°
revolutions per day: 14.22811254
mean anomaly at epoch: 56.4083°
orbit number at epoch: 44673

The dashed part of the orbit path shows where the satellite is in the earth's shadow,  

DLR